Terminal Aerodrome Forecast
Issued by NWS

Home | Current Version | Previous Version | Text Only | Print | Product List | Glossary On
Versions: 1 2 3 4 5 6 7 8 9 10 11 12 13 14
000
FTAK31 PAJN 280500
TAFAPG
TAF
PAPG 280531Z 2806/2906 VRB05KT P6SM VCSH OVC040
     FM281600 05005KT 5SM -SN BR SCT007 SCT015 OVC030
     FM281900 10008KT 4SM -SNRA SCT007 OVC012
     FM282300 10010KT 5SM -RA OVC008
      AMD LTD TO CLD VIS AND WIND 2806/2815=

USA.gov is the U.S. government's official web portal to all federal, state and local government web resources and services.